[[{"header":{"parameterUnit":"m.s-1","parameterCategory":1,"la1":30.2991,"la2":30.254,"lo1":-89.0895,"lo2":-89.0444,"dy":0.0017,"dx":0.0017,"nx":28,"ny":28,"refTime":"2023-08-05T21:00:00:Z","depth":0,"parameterNumber":2,"parameterNumberName":"U-component_of_WINDS"},"data":[0,0,0,0,0,0,0,0,0,0,0,0,0,0,0,0,0,0,0,0,0,0,0,0,0,0,0,0,0,0,0,0,0,0,0,0,0,0,0,0,0,0,0,0,0,0,0,0,0,0,0,0,0,0,0,0,0,0,3.3117,3.3117,0,3.3123,3.3123,3.3123,3.3139,3.314,3.314,3.314,3.3148,3.3148,3.3148,0,0,0,0,0,0,0,0,0,0,0,0,0,3.3119,3.3119,3.3117,3.3117,3.3117,3.3123,3.3123,3.3123,3.3139,3.314,3.314,3.3141,3.3148,3.3148,3.3148,0,0,0,0,0,0,0,0,0,0,0,0,0,3.3121,3.3119,3.3117,3.3126,3.3126,3.3123,3.3123,3.3124,3.3139,3.314,3.314,3.3141,3.3148,3.3148,3.3148,3.3136,0,0,3.3147,3.3147,0,0,0,0,0,0,0,0,3.3121,3.3121,3.3124,3.3125,3.3126,3.3131,3.3127,3.3128,3.3139,3.3134,3.314,3.3141,3.3142,3.3142,3.3142,3.3137,3.3137,3.3147,3.3147,3.3147,3.3147,0,0,0,0,0,0,0,3.3121,3.3121,3.3119,3.3124,3.3125,3.313,3.313,3.3127,3.3135,3.3135,3.3136,3.3137,3.3142,3.3142,3.3143,3.3137,3.3147,3.3147,3.3147,3.3147,3.3124,3.3123,0,0,0,0,0,0,3.3119,3.3121,3.3119,3.3119,3.3125,3.3129,3.313,3.3129,3.3135,3.3137,3.3136,3.3137,3.3143,3.3143,3.3143,3.3131,3.3147,3.3147,3.3147,3.3124,3.3124,3.3123,0,0,0,0,0,0,3.3119,3.3119,3.3119,3.312,3.3121,3.3129,3.3127,3.3129,3.3129,3.3136,3.3138,3.3135,3.3143,3.3143,3.3138,3.3131,3.3147,3.3146,3.3125,3.3124,3.3124,3.3106,0,0,0,0,0,0,3.3119,3.3119,3.3114,3.312,3.3121,3.3113,3.3127,3.3129,3.3128,3.313,3.3135,3.3137,3.3143,3.3138,3.3138,3.3131,3.3146,3.3126,3.3125,3.3124,3.3107,3.3104,3.3102,0,0,0,0,0,3.3119,3.3109,3.3114,3.3114,3.3115,3.3113,3.3113,3.3121,3.3128,3.3123,3.3129,3.3136,3.3132,3.3138,3.3137,3.313,3.3126,3.3125,3.3124,3.3108,3.3105,3.3102,0,0,0,0,0,0,3.3102,3.311,3.3115,3.3106,3.3109,3.3115,3.311,3.3117,3.3118,3.3119,3.3129,3.313,3.3124,3.3127,3.3133,3.3121,3.3131,3.3129,3.3119,3.3116,3.3113,3.3113,3.3146,0,0,0,0,0,3.3097,3.3094,3.3102,3.3093,3.3094,3.3102,3.3101,3.3107,3.311,3.3111,3.3116,3.3119,3.3118,3.3117,3.3117,3.3108,3.311,3.3103,3.3101,3.3099,3.3098,3.3094,3.3091,3.312,3.312,3.312,0,0,3.3087,3.3091,3.3088,3.309,3.3092,3.309,3.3103,3.3099,3.3097,3.3111,3.3106,3.311,3.3114,3.3107,3.3104,3.3109,3.309,3.3098,3.3096,3.3096,3.3092,3.3089,3.3087,3.3119,3.3119,3.3119,0,0,3.3066,3.3069,3.3063,3.3065,3.3069,3.3075,3.3073,3.3079,3.3082,3.3078,3.3088,3.3086,3.3085,3.3087,3.3088,3.3071,3.3079,3.3071,3.3058,3.3054,3.3052,3.305,3.3044,3.3042,3.307,3.307,3.307,0,3.3053,3.3049,3.3058,3.3055,3.3055,3.3068,3.3061,3.3063,3.3067,3.3067,3.3073,3.3072,3.3076,3.307,3.3066,3.3066,3.3065,3.307,3.3052,3.305,3.3048,3.3042,3.304,3.3069,3.3069,3.3069,3.3069,0,3.3033,3.303,3.3025,3.3028,3.3028,3.3023,3.3032,3.3031,3.3038,3.3043,3.3039,3.3044,3.3045,3.3044,3.305,3.3039,3.3042,3.305,3.306,3.3044,3.3039,3.3037,3.3067,3.3068,3.3068,3.3068,0,0,3.3,3.301,3.3007,3.3009,3.3015,3.3014,3.301,3.3011,3.301,3.3013,3.301,3.3009,3.3017,3.3018,3.3025,3.3021,3.3007,3.3029,3.303,3.3025,3.2996,3.299,3.2987,3.3013,3.3013,3.3012,3.2996,0,3.2981,3.2974,3.2983,3.2975,3.2973,3.2985,3.2982,3.2986,3.2991,3.299,3.2996,3.2996,3.3005,3.3006,3.3004,3.301,3.3002,3.3011,3.301,3.301,3.3008,3.2984,3.2977,3.2961,3.2994,3.2993,3.2993,0,3.2957,3.2959,3.295,3.2958,3.2957,3.2954,3.2956,3.2956,3.296,3.2965,3.2967,3.2975,3.2972,3.2983,3.298,3.2986,3.2987,3.299,3.2989,3.2989,3.3,3.2982,3.2956,3.2953,3.299,3.299,3.299,0,3.2934,3.2934,3.2929,3.2931,3.2939,3.2937,3.294,3.2945,3.2946,3.2949,3.2949,3.2951,3.2952,3.2954,3.2963,3.297,3.2959,3.297,3.2962,3.2962,3.2959,3.2958,3.2931,3.296,3.296,3.296,3.296,0,3.2911,3.2905,3.2919,3.2916,3.291,3.2921,3.2915,3.292,3.2925,3.2923,3.2935,3.2933,3.2945,3.2945,3.2953,3.2949,3.2949,3.2953,3.2955,3.2951,3.2951,3.2951,3.2952,3.296,3.296,3.296,3.296,0,3.2884,3.2893,3.2888,3.2897,3.2899,3.2894,3.2902,3.29,3.2906,3.2904,3.2904,3.2915,3.2915,3.2925,3.2928,3.2933,3.2926,3.293,3.2924,3.2925,3.2917,3.2917,3.2888,3.2884,3.2916,3.2916,3.2916,0,3.2868,3.2864,3.2872,3.2872,3.2875,3.2874,3.2875,3.2887,3.2887,3.2893,3.289,3.2892,3.2893,3.2894,3.2902,3.2904,3.2909,3.2898,3.2909,3.2906,3.2908,3.2908,3.2907,3.2896,3.2895,3.2895,3.2895,0,3.2839,3.2844,3.2845,3.2847,3.2848,3.285,3.2854,3.2853,3.2865,3.2866,3.2866,3.2868,3.2871,3.2872,3.2877,3.2881,3.289,3.2892,3.289,3.2886,3.2882,3.2883,3.2917,3.2892,3.2892,3.2892,3.2892,3.2893,3.2817,3.2814,3.282,3.282,3.2824,3.2827,3.2825,3.2832,3.2833,3.2836,3.2843,3.2843,3.2849,3.2856,3.2859,3.286,3.2865,3.2863,3.2862,3.2861,3.2859,3.2883,3.2861,3.2861,3.2861,3.2861,3.2861,0,3.2788,3.2793,3.2793,3.2798,3.2798,3.2808,3.2812,3.2812,3.2812,3.2817,3.2818,3.282,3.2822,3.283,3.2834,3.2832,3.2836,3.2833,3.2832,3.2833,3.2854,3.2855,3.2829,3.2829,3.2829,3.2829,3.2829,3.2829,3.2773,3.2769,3.2775,3.2773,3.2778,3.2777,3.2779,3.2782,3.2786,3.2787,3.2789,3.2795,3.2802,3.2806,3.2808,3.2811,3.2811,3.2806,3.2809,3.2829,3.2832,3.2835,3.2835,3.2806,3.2806,3.2788,3.2788,3.2788]},{"header":{"parameterUnit":"m.s-1","parameterCategory":1,"la1":30.2991,"la2":30.254,"lo1":-89.0895,"lo2":-89.0444,"dy":0.0017,"dx":0.0017,"nx":28,"ny":28,"refTime":"2023-08-05T21:00:00:Z","depth":0,"parameterNumber":3,"parameterNumberName":"V-component_of_WINDS"},"data":[0,0,0,0,0,0,0,0,0,0,0,0,0,0,0,0,0,0,0,0,0,0,0,0,0,0,0,0,0,0,0,0,0,0,0,0,0,0,0,0,0,0,0,0,0,0,0,0,0,0,0,0,0,0,0,0,0,0,2.9315,2.9316,0,2.9357,2.9357,2.9358,2.9378,2.9378,2.9378,2.9378,2.9417,2.9418,2.9419,0,0,0,0,0,0,0,0,0,0,0,0,0,2.9249,2.9251,2.9315,2.9316,2.9316,2.9357,2.9357,2.9358,2.9378,2.9378,2.9378,2.9379,2.9417,2.9418,2.9419,0,0,0,0,0,0,0,0,0,0,0,0,0,2.9283,2.9251,2.9315,2.9331,2.9333,2.9357,2.9357,2.9358,2.9378,2.9378,2.9378,2.9379,2.9416,2.9418,2.9419,2.9428,0,0,2.9424,2.9425,0,0,0,0,0,0,0,0,2.9281,2.9285,2.9329,2.933,2.9333,2.9363,2.9348,2.9381,2.9378,2.9361,2.9378,2.9379,2.9399,2.9402,2.9409,2.943,2.9432,2.9424,2.9425,2.9426,2.9426,0,0,0,0,0,0,0,2.9279,2.9284,2.9332,2.9329,2.9332,2.9335,2.934,2.9355,2.9379,2.9363,2.9364,2.9369,2.94,2.9408,2.941,2.9432,2.9424,2.9425,2.9426,2.9427,2.9462,2.9462,0,0,0,0,0,0,2.9274,2.9282,2.933,2.9333,2.9307,2.9337,2.9342,2.9353,2.9379,2.9383,2.9369,2.937,2.9405,2.9408,2.9412,2.9424,2.9426,2.9427,2.9428,2.9462,2.9462,2.9462,0,0,0,0,0,0,2.9273,2.9279,2.9329,2.9308,2.9314,2.9338,2.935,2.9354,2.9362,2.9384,2.9388,2.9373,2.9405,2.941,2.9424,2.9426,2.9428,2.9429,2.9462,2.9462,2.9462,2.9448,0,0,0,0,0,0,2.9271,2.9278,2.9282,2.9308,2.9315,2.9341,2.935,2.9354,2.9365,2.9366,2.9389,2.9392,2.9406,2.9422,2.9426,2.9428,2.943,2.9462,2.9462,2.9462,2.9449,2.9448,2.9447,0,0,0,0,0,2.9269,2.9276,2.9283,2.9288,2.9322,2.9342,2.9346,2.9362,2.9365,2.9369,2.9383,2.9392,2.9425,2.9423,2.9428,2.943,2.9462,2.9462,2.9462,2.9449,2.9448,2.9447,0,0,0,0,0,0,2.9249,2.928,2.9287,2.9304,2.932,2.9345,2.9351,2.936,2.9375,2.9376,2.9394,2.9399,2.9412,2.9422,2.942,2.944,2.9444,2.9445,2.9433,2.9432,2.9431,2.9428,2.9432,0,0,0,0,0,2.9247,2.9261,2.9287,2.9299,2.9307,2.9327,2.9336,2.9348,2.9365,2.9371,2.9387,2.9402,2.9416,2.9424,2.9438,2.945,2.9455,2.9454,2.9453,2.9453,2.9453,2.946,2.946,2.9462,2.9462,2.9462,0,0,2.9242,2.926,2.9268,2.9295,2.9309,2.9323,2.9333,2.9347,2.9357,2.9373,2.9388,2.94,2.9418,2.9431,2.9438,2.9441,2.9454,2.9453,2.9452,2.9453,2.946,2.946,2.946,2.9462,2.9462,2.9462,0,0,2.924,2.9256,2.9268,2.9282,2.9303,2.9317,2.932,2.9344,2.9352,2.9368,2.9381,2.9392,2.9415,2.9428,2.9437,2.944,2.9448,2.9444,2.944,2.9446,2.9446,2.9446,2.9447,2.9447,2.9444,2.9444,2.9444,0,2.9231,2.9254,2.9272,2.9286,2.9297,2.9313,2.9325,2.9337,2.9361,2.9368,2.9371,2.9401,2.9414,2.9431,2.9432,2.9438,2.9441,2.9442,2.9445,2.9445,2.9445,2.9446,2.9447,2.9444,2.9444,2.9444,2.9444,0,2.9241,2.9256,2.9263,2.9288,2.93,2.9312,2.9331,2.934,2.935,2.9363,2.9379,2.9395,2.9413,2.9418,2.9427,2.9435,2.9436,2.9442,2.9446,2.9444,2.9445,2.9446,2.9443,2.9443,2.9443,2.9443,0,0,2.9228,2.9264,2.9266,2.9277,2.9302,2.9314,2.9326,2.9345,2.9353,2.9368,2.9379,2.9399,2.9404,2.9415,2.9425,2.9431,2.9432,2.9436,2.9436,2.9435,2.9442,2.9438,2.9439,2.9438,2.9438,2.9438,2.9441,0,2.923,2.9255,2.9272,2.929,2.9304,2.932,2.9331,2.9346,2.9359,2.9371,2.9384,2.9398,2.9404,2.9411,2.9417,2.9431,2.9434,2.9431,2.9447,2.9447,2.9442,2.9439,2.9435,2.9437,2.9442,2.9442,2.9442,0,2.9236,2.9253,2.9273,2.9297,2.9303,2.9313,2.9331,2.9343,2.9361,2.937,2.9382,2.9393,2.9405,2.9409,2.9426,2.9423,2.9431,2.9438,2.9439,2.9441,2.9444,2.9441,2.9438,2.9438,2.9443,2.9443,2.9443,0,2.9225,2.9252,2.9268,2.9277,2.9305,2.9312,2.9323,2.9341,2.9351,2.9367,2.9374,2.939,2.9398,2.941,2.9425,2.9426,2.9441,2.9445,2.9447,2.9447,2.945,2.9449,2.9448,2.9454,2.9454,2.9454,2.9454,0,2.9225,2.9236,2.9264,2.9273,2.9286,2.9305,2.9316,2.9329,2.9345,2.9356,2.937,2.938,2.9399,2.9411,2.9423,2.9435,2.9439,2.9445,2.9448,2.9444,2.9443,2.9449,2.945,2.9454,2.9454,2.9454,2.9454,0,2.9215,2.9233,2.9251,2.9277,2.9283,2.9292,2.9313,2.9322,2.9335,2.9349,2.9353,2.9374,2.9389,2.9405,2.9424,2.9432,2.9444,2.9448,2.9438,2.944,2.9441,2.9441,2.9443,2.9445,2.945,2.945,2.945,0,2.9214,2.9223,2.925,2.9259,2.9271,2.9286,2.9297,2.9315,2.9325,2.9346,2.9353,2.9369,2.9383,2.9406,2.9421,2.9436,2.9441,2.9441,2.9443,2.9439,2.9441,2.944,2.9441,2.944,2.944,2.944,2.944,0,2.921,2.9219,2.9235,2.9254,2.9267,2.9282,2.9298,2.9304,2.9326,2.9336,2.9353,2.9363,2.9384,2.94,2.9417,2.9428,2.9437,2.9439,2.944,2.9436,2.943,2.9434,2.9436,2.9439,2.9439,2.9439,2.9439,2.9439,2.9205,2.9214,2.9234,2.9251,2.9265,2.928,2.929,2.9305,2.9319,2.9339,2.9348,2.9364,2.9381,2.9406,2.9416,2.9428,2.9431,2.9432,2.9433,2.9433,2.9432,2.9428,2.9431,2.9431,2.9431,2.9431,2.9431,0,2.9202,2.9216,2.9232,2.9254,2.9267,2.9276,2.9294,2.9304,2.9318,2.9334,2.9348,2.9366,2.9382,2.9399,2.9415,2.9421,2.9426,2.9425,2.9424,2.9427,2.9429,2.9426,2.9421,2.9421,2.9421,2.9421,2.9421,2.9421,2.9202,2.9218,2.9229,2.9252,2.9266,2.9283,2.9292,2.9305,2.9318,2.9339,2.9352,2.9364,2.938,2.9397,2.9411,2.9416,2.9421,2.9419,2.9424,2.9426,2.9427,2.9427,2.9425,2.942,2.942,2.9421,2.9421,2.9421]}]]